KAL946 EDDF-RKSI

Flight info

Callsign KAL946
Flight time N/A
Altitude 31000
Route SULUS7S/18 SULUS Z650 VEMUT DCT PEPIK/N0489F330 DCT BUDOP DCT DINRO N743 UDROS UM859 KARDE UN644 ROLIN DCT TAGAR DCT BT DCT BARAD M747 SUBUT T916 BALUN/K0906F350 T916 PIGAL M610 RULAD/K0896S1070 A343 POSOT B215 FKG W188 BATUS/K0895S1130 W188 LIKMI W270 DKO W69 HUR B339 LADIX W34 VAPGU W100 ORAVA W201 UNSEK A326 DONVO G597 AGAVO/N0513F290 Y644 REBIT REBIT2H
Aircraft B77W/H-SDE1E2E3FGHIJ2J3J4J5M1RWXY/LB1D1

Departure

Time 2026-05-06 17:20
Airport Frankfurt Main Airport (EDDF)

Arrival

Time N/A
Airport Incheon International Airport (RKSI)
Time Latitude Longitude Altitude Speed Heading
2026-05-06 16:42 50.03181 8.57417 364 ft 0 kts 205°
2026-05-06 16:58 50.03182 8.57417 361 ft 2 kts 205°
2026-05-06 16:58 50.03205 8.57433 362 ft 4 kts 205°
2026-05-06 16:58 50.03227 8.57449 366 ft 1 kts 205°
2026-05-06 16:58 50.03247 8.57468 368 ft 4 kts 229°
2026-05-06 16:59 50.03258 8.57501 367 ft 4 kts 279°
2026-05-06 16:59 50.03249 8.57537 367 ft 4 kts 295°
2026-05-06 16:59 50.03238 8.57575 364 ft 4 kts 295°
2026-05-06 16:59 50.03232 8.57596 368 ft 0 kts 295°
2026-05-06 17:05 50.03233 8.57592 368 ft 2 kts 295°
2026-05-06 17:05 50.03245 8.57551 367 ft 6 kts 295°
2026-05-06 17:05 50.03270 8.57467 363 ft 10 kts 295°
2026-05-06 17:05 50.03298 8.57374 367 ft 9 kts 295°
2026-05-06 17:06 50.03311 8.57333 365 ft 2 kts 295°
2026-05-06 17:06 50.03314 8.57323 365 ft 0 kts 295°
2026-05-06 17:07 50.03318 8.57307 366 ft 7 kts 295°
2026-05-06 17:08 50.03341 8.57232 367 ft 8 kts 295°
2026-05-06 17:08 50.03356 8.57129 362 ft 13 kts 264°
2026-05-06 17:08 50.03325 8.56997 364 ft 13 kts 249°
2026-05-06 17:08 50.03293 8.56865 362 ft 13 kts 250°
2026-05-06 17:09 50.03262 8.56732 354 ft 14 kts 250°
2026-05-06 17:09 50.03229 8.56595 362 ft 13 kts 250°
2026-05-06 17:09 50.03197 8.56458 359 ft 13 kts 249°
2026-05-06 17:09 50.03164 8.56322 357 ft 13 kts 250°
2026-05-06 17:10 50.03131 8.56183 356 ft 14 kts 250°
2026-05-06 17:10 50.03098 8.56044 359 ft 14 kts 249°
2026-05-06 17:10 50.03076 8.55950 354 ft 14 kts 250°
2026-05-06 17:10 50.03042 8.55811 359 ft 14 kts 249°
2026-05-06 17:11 50.03009 8.55674 357 ft 14 kts 250°
2026-05-06 17:11 50.02976 8.55534 351 ft 14 kts 249°
2026-05-06 17:11 50.02943 8.55396 356 ft 14 kts 250°
2026-05-06 17:11 50.02907 8.55248 354 ft 15 kts 249°
2026-05-06 17:12 50.02870 8.55093 356 ft 15 kts 250°
2026-05-06 17:12 50.02835 8.54946 352 ft 11 kts 250°
2026-05-06 17:12 50.02834 8.54852 354 ft 9 kts 304°
2026-05-06 17:12 50.02891 8.54801 352 ft 9 kts 328°
2026-05-06 17:13 50.02926 8.54742 353 ft 3 kts 307°
2026-05-06 17:13 50.02939 8.54717 352 ft 4 kts 312°
2026-05-06 17:13 50.02986 8.54671 350 ft 11 kts 338°
2026-05-06 17:13 50.03063 8.54624 337 ft 13 kts 339°
2026-05-06 17:14 50.03147 8.54576 352 ft 13 kts 340°
2026-05-06 17:14 50.03232 8.54528 351 ft 13 kts 339°
2026-05-06 17:14 50.03317 8.54478 354 ft 12 kts 340°
2026-05-06 17:14 50.03393 8.54434 350 ft 12 kts 340°
2026-05-06 17:15 50.03488 8.54381 356 ft 14 kts 339°
2026-05-06 17:15 50.03575 8.54330 354 ft 12 kts 339°
2026-05-06 17:15 50.03634 8.54312 352 ft 9 kts 18°
2026-05-06 17:15 50.03678 8.54378 356 ft 9 kts 36°
2026-05-06 17:16 50.03736 8.54373 359 ft 9 kts 343°
2026-05-06 17:16 50.03794 8.54339 360 ft 9 kts 338°
2026-05-06 17:16 50.03815 8.54261 355 ft 8 kts 257°
2026-05-06 17:16 50.03785 8.54159 358 ft 13 kts 248°
2026-05-06 17:17 50.03752 8.54025 357 ft 13 kts 250°
2026-05-06 17:17 50.03716 8.53873 358 ft 17 kts 250°
2026-05-06 17:17 50.03676 8.53705 355 ft 17 kts 250°
2026-05-06 17:17 50.03633 8.53537 350 ft 17 kts 249°
2026-05-06 17:18 50.03593 8.53369 351 ft 17 kts 249°
2026-05-06 17:18 50.03553 8.53203 345 ft 17 kts 250°
2026-05-06 17:18 50.03514 8.53040 349 ft 17 kts 250°
2026-05-06 17:18 50.03475 8.52883 348 ft 17 kts 245°
2026-05-06 17:19 50.03432 8.52729 335 ft 17 kts 249°
2026-05-06 17:19 50.03389 8.52609 338 ft 11 kts 210°
2026-05-06 17:19 50.03291 8.52595 336 ft 24 kts 180°
2026-05-06 17:19 50.02901 8.52599 336 ft 93 kts 179°
2026-05-06 17:20 50.02011 8.52608 339 ft 160 kts 180°
2026-05-06 17:20 50.00713 8.52634 401 ft 204 kts 181°
2026-05-06 17:20 49.99284 8.52662 972 ft 205 kts 182°
2026-05-06 17:20 49.97866 8.52659 1688 ft 203 kts 181°
2026-05-06 17:21 49.96494 8.53290 1976 ft 217 kts 142°
2026-05-06 17:21 49.95600 8.55218 2143 ft 226 kts 115°
2026-05-06 17:21 49.94858 8.57444 2509 ft 236 kts 118°
2026-05-06 17:21 49.94129 8.59758 2977 ft 240 kts 107°
2026-05-06 17:22 49.93937 8.62406 3268 ft 254 kts 91°
2026-05-06 17:22 49.93871 8.65213 3682 ft 266 kts 94°
2026-05-06 17:22 49.93707 8.68109 4139 ft 272 kts 106°
2026-05-06 17:22 49.92796 8.70641 4577 ft 272 kts 141°
2026-05-06 17:23 49.91271 8.72333 5132 ft 272 kts 149°
2026-05-06 17:23 49.89706 8.74018 5818 ft 274 kts 148°
2026-05-06 17:23 49.88235 8.75911 6379 ft 279 kts 129°
2026-05-06 17:23 49.87262 8.78548 6811 ft 285 kts 119°
2026-05-06 17:24 49.86333 8.81292 7423 ft 288 kts 121°
2026-05-06 17:24 49.85365 8.83999 8117 ft 288 kts 122°
2026-05-06 17:24 49.84381 8.86711 8739 ft 290 kts 122°
2026-05-06 17:24 49.83356 8.89534 9368 ft 294 kts 122°
2026-05-06 17:25 49.82378 8.92222 9941 ft 296 kts 122°
2026-05-06 17:25 49.81345 8.95061 10263 ft 311 kts 121°
2026-05-06 17:25 49.80246 8.98078 10422 ft 332 kts 121°
2026-05-06 17:25 49.79077 9.01287 10604 ft 352 kts 121°
2026-05-06 17:26 49.77837 9.04686 10801 ft 372 kts 121°
2026-05-06 17:26 49.76569 9.08168 11360 ft 379 kts 120°
2026-05-06 17:26 49.75549 9.11940 11877 ft 387 kts 107°
2026-05-06 17:26 49.74933 9.16017 12600 ft 392 kts 103°
2026-05-06 17:27 49.74370 9.20150 13412 ft 394 kts 104°
2026-05-06 17:27 49.73749 9.24333 14154 ft 397 kts 104°
2026-05-06 17:27 49.73100 9.28474 14868 ft 400 kts 105°
2026-05-06 17:27 49.72428 9.32647 15550 ft 404 kts 105°
2026-05-06 17:28 49.71737 9.36889 16215 ft 408 kts 105°
2026-05-06 17:28 49.71037 9.41164 16927 ft 411 kts 105°
2026-05-06 17:28 49.70333 9.45453 17617 ft 415 kts 105°
2026-05-06 17:28 49.69619 9.49803 18245 ft 419 kts 105°
2026-05-06 17:29 49.68900 9.54179 18794 ft 423 kts 105°
2026-05-06 17:29 49.68170 9.58603 19366 ft 427 kts 106°
2026-05-06 17:29 49.67433 9.63064 19939 ft 429 kts 105°
2026-05-06 17:29 49.67031 9.67654 20325 ft 437 kts 88°
2026-05-06 17:30 49.67647 9.72267 20743 ft 440 kts 73°
2026-05-06 17:30 49.68579 9.76746 21134 ft 447 kts 75°
2026-05-06 17:30 49.69444 9.81437 21667 ft 450 kts 76°
2026-05-06 17:30 49.70260 9.86120 22280 ft 452 kts 76°
2026-05-06 17:31 49.71076 9.90821 22821 ft 455 kts 76°
2026-05-06 17:31 49.72030 9.95436 23281 ft 460 kts 66°
2026-05-06 17:31 49.73721 9.99656 23513 ft 466 kts 54°
2026-05-06 17:31 49.75688 10.03695 23770 ft 474 kts 54°
2026-05-06 17:32 49.77707 10.07834 24270 ft 475 kts 54°
2026-05-06 17:32 49.79677 10.11939 24816 ft 475 kts 54°
2026-05-06 17:32 49.81603 10.16027 25230 ft 478 kts 55°
2026-05-06 17:32 49.83550 10.20224 25595 ft 482 kts 55°
2026-05-06 17:33 49.85501 10.24470 25960 ft 485 kts 56°
2026-05-06 17:33 49.87457 10.28746 26356 ft 488 kts 56°
2026-05-06 17:33 49.89466 10.33147 26755 ft 491 kts 56°
2026-05-06 17:33 49.91404 10.37397 27130 ft 494 kts 56°
2026-05-06 17:34 49.93393 10.41761 27492 ft 497 kts 56°
2026-05-06 17:34 49.95391 10.46149 27824 ft 499 kts 56°
2026-05-06 17:34 49.97397 10.50563 28174 ft 502 kts 56°
2026-05-06 17:34 49.99418 10.55016 28443 ft 506 kts 56°
2026-05-06 17:35 50.01461 10.59521 28633 ft 511 kts 56°
2026-05-06 17:35 50.03514 10.64060 28910 ft 514 kts 57°
2026-05-06 17:35 50.05299 10.68837 29097 ft 511 kts 71°
2026-05-06 17:36 50.06069 10.79604 29568 ft 501 kts 102°
2026-05-06 17:36 50.05211 10.84805 29876 ft 493 kts 113°
2026-05-06 17:36 50.04041 10.89948 30117 ft 494 kts 114°
2026-05-06 17:36 50.02936 10.94843 30386 ft 495 kts 113°
2026-05-06 17:37 50.01822 10.99908 30678 ft 495 kts 113°
2026-05-06 17:37 50.00722 11.05030 30694 ft 501 kts 113°
2026-05-06 17:37 49.98541 11.15350 30768 ft 502 kts 113°
2026-05-06 17:38 49.96358 11.25616 30764 ft 497 kts 113°
2026-05-06 17:38 49.94174 11.35799 30764 ft 497 kts 113°
2026-05-06 17:39 49.92062 11.45955 30740 ft 500 kts 111°
2026-05-06 17:39 49.90237 11.56417 30764 ft 503 kts 110°
2026-05-06 17:40 49.88369 11.66891 30767 ft 506 kts 109°
2026-05-06 17:40 49.87228 11.77742 30773 ft 513 kts 102°
2026-05-06 17:41 49.86339 11.88750 30741 ft 514 kts 102°
2026-05-06 17:41 49.85370 11.99704 30762 ft 514 kts 102°
2026-05-06 17:42 49.84358 12.10681 30756 ft 514 kts 103°
2026-05-06 17:42 49.83340 12.21646 30735 ft 514 kts 103°
2026-05-06 17:43 49.82332 12.32593 30701 ft 514 kts 102°
2026-05-06 17:43 49.81328 12.43549 30737 ft 513 kts 104°
2026-05-06 17:44 49.79606 12.54159 30742 ft 507 kts 112°
2026-05-06 17:44 49.77463 12.64550 30733 ft 507 kts 112°
2026-05-06 17:45 49.75326 12.74964 30706 ft 508 kts 112°
2026-05-06 17:45 49.73215 12.85372 30728 ft 508 kts 112°
2026-05-06 17:46 49.71105 12.95784 30737 ft 508 kts 112°
2026-05-06 17:46 49.68983 13.06202 30734 ft 508 kts 112°
2026-05-06 17:47 49.66849 13.16617 30745 ft 508 kts 112°
2026-05-06 17:47 49.64706 13.27012 30754 ft 508 kts 113°
2026-05-06 17:48 49.63627 13.32219 30902 ft 511 kts 113°
2026-05-06 17:48 49.62547 13.37423 31241 ft 509 kts 113°
2026-05-06 17:48 49.61470 13.42607 31607 ft 507 kts 113°
2026-05-06 17:48 49.60392 13.47781 31966 ft 505 kts 113°
2026-05-06 17:49 49.59316 13.52930 32281 ft 505 kts 113°
2026-05-06 17:49 49.58248 13.58022 32488 ft 505 kts 113°
2026-05-06 17:49 49.57167 13.63162 32689 ft 505 kts 113°
2026-05-06 17:49 49.56062 13.68399 32728 ft 506 kts 113°
2026-05-06 17:50 49.53905 13.78598 32731 ft 503 kts 114°
2026-05-06 17:50 49.51732 13.88827 32735 ft 501 kts 114°
2026-05-06 17:51 49.49558 13.99002 32730 ft 500 kts 114°
2026-05-06 17:51 49.47375 14.09161 32724 ft 500 kts 114°
2026-05-06 17:52 49.45180 14.19326 32716 ft 502 kts 114°
2026-05-06 17:52 49.42964 14.29539 32707 ft 505 kts 114°
2026-05-06 17:53 49.40734 14.39772 32728 ft 506 kts 114°
2026-05-06 17:53 49.38774 14.48727 32714 ft 506 kts 115°
2026-05-06 17:54 49.36521 14.58967 32709 ft 507 kts 115°
2026-05-06 17:54 49.34640 14.67486 32709 ft 507 kts 115°
2026-05-06 17:55 49.32370 14.77714 32701 ft 506 kts 115°
2026-05-06 17:55 49.30095 14.87919 32692 ft 505 kts 116°
2026-05-06 17:56 49.27816 14.98088 32701 ft 505 kts 116°
2026-05-06 17:56 49.25522 15.08264 32705 ft 506 kts 116°
2026-05-06 17:57 49.23218 15.18443 32706 ft 506 kts 116°
2026-05-06 17:57 49.20900 15.28635 32691 ft 507 kts 116°
2026-05-06 17:58 49.18576 15.38811 32704 ft 508 kts 116°
2026-05-06 17:58 49.16228 15.49030 32710 ft 509 kts 116°
2026-05-06 17:59 49.13872 15.59244 32710 ft 510 kts 116°
2026-05-06 17:59 49.11504 15.69462 32703 ft 510 kts 115°
2026-05-06 18:00 49.09125 15.79680 32703 ft 512 kts 115°
2026-05-06 18:00 49.06735 15.89895 32711 ft 512 kts 115°
2026-05-06 18:01 49.04327 16.00135 32739 ft 513 kts 115°
2026-05-06 18:01 49.01910 16.10369 32728 ft 513 kts 115°
2026-05-06 18:02 48.99487 16.20578 32729 ft 513 kts 115°
2026-05-06 18:02 48.97048 16.30808 32738 ft 514 kts 115°
2026-05-06 18:03 48.94601 16.41022 32724 ft 514 kts 115°
2026-05-06 18:03 48.92160 16.51163 32728 ft 514 kts 115°
2026-05-06 18:04 48.89755 16.61113 32737 ft 514 kts 115°
2026-05-06 18:04 48.86750 16.70990 32728 ft 504 kts 127°
2026-05-06 18:05 48.82958 16.79887 32730 ft 503 kts 128°
2026-05-06 18:05 48.79158 16.88818 32741 ft 502 kts 128°
2026-05-06 18:06 48.75400 16.97740 32745 ft 502 kts 128°
2026-05-06 18:06 48.71648 17.06660 32748 ft 502 kts 128°
2026-05-06 18:07 48.67891 17.15568 32761 ft 502 kts 128°
2026-05-06 18:07 48.64134 17.24441 32758 ft 501 kts 128°
2026-05-06 18:08 48.60371 17.33293 32771 ft 500 kts 128°
2026-05-06 18:08 48.56605 17.42123 32776 ft 499 kts 128°
2026-05-06 18:09 48.52839 17.50923 32764 ft 499 kts 128°
2026-05-06 18:09 48.49068 17.59707 32771 ft 498 kts 128°
2026-05-06 18:10 48.45298 17.68461 32772 ft 498 kts 128°
2026-05-06 18:10 48.41515 17.77216 32792 ft 498 kts 128°
2026-05-06 18:11 48.37719 17.85971 32804 ft 499 kts 128°
2026-05-06 18:11 48.33941 17.94658 32805 ft 499 kts 128°
2026-05-06 18:12 48.30134 18.03384 32813 ft 500 kts 128°
2026-05-06 18:12 48.26319 18.12103 32826 ft 499 kts 128°
2026-05-06 18:13 48.22496 18.20809 32819 ft 499 kts 128°
2026-05-06 18:13 48.18666 18.29503 32818 ft 499 kts 128°
2026-05-06 18:14 48.14836 18.38169 32830 ft 499 kts 128°
2026-05-06 18:14 48.11002 18.46819 32843 ft 499 kts 128°
2026-05-06 18:15 48.07174 18.55424 32852 ft 499 kts 128°
2026-05-06 18:15 48.03324 18.64054 32836 ft 499 kts 128°
2026-05-06 18:16 47.99460 18.72687 32867 ft 500 kts 128°
2026-05-06 18:16 47.95583 18.81320 32861 ft 501 kts 128°
2026-05-06 18:17 47.91694 18.89955 32868 ft 501 kts 128°
2026-05-06 18:17 47.87798 18.98576 32851 ft 501 kts 128°
2026-05-06 18:18 47.83903 19.07170 32864 ft 501 kts 128°
2026-05-06 18:18 47.79996 19.15763 32876 ft 501 kts 128°
2026-05-06 18:19 47.76083 19.24342 32881 ft 501 kts 128°